Preview of NWS' New Version of Forecast
This preview is not operational and should not be used for support decisions.

Regional Weather Roundup (RWR)

Issued by National Weather Service (NWS)

                            
000
ASUS44 KJAN 240010
RWRMS 

MISSISSIPPI HOURLY WEATHER ROUNDUP
NATIONAL WEATHER SERVICE JACKSON MS
700 PM CDT SUN JUN 23 2019

NOTE: "FAIR: INDICATES FEW OR NO CLOUDS BELOW 12,000 FEET WITH NO
SIGNIFICANT WEATHER AND/OR OBSTRUCTIONS TO VISIBILITY.

MSZ001>002-007>008-010>013-018>021-025>028-034>036-240100-
NORTHWEST MISSISSIPPI
  
CITY           SKY/WX    TMP DP  RH WIND       PRES   REMARKS
BATESVILLE       N/A     70  68  94 CALM      29.93R                  
CLARKSDALE     CLOUDY    72  72 100 NE6G12    29.92F                  
CLEVELAND      TSTM      67  67 100 N23       29.90F                  
GREENWOOD      FAIR      87  74  64 S7        29.86F THUNDER HX  95   
6HR MIN TEMP:  87; 6HR MAX TEMP:  93;                                

GREENVILLE     NOT AVBL                                               
OLIVE BRANCH   CLOUDY    68  68 100 NW3       29.90F                  
OXFORD         CLOUDY    73  64  73 NW15G24   29.96R                  
TUNICA           N/A     68  66  94 E6        29.91F                  
WINONA         FAIR      86  75  70 S3        29.88F HX  95           
$$

MSZ003>006-009-014>017-022>024-029>033-037>039-240100-
NORTHEAST MISSISSIPPI
  
CITY           SKY/WX    TMP DP  RH WIND       PRES   REMARKS
ABERDEEN       FAIR      86  86 100 S8G16     29.90F HX 112           
COLUMBUS AFB   FAIR      87  71  59 S7        29.89S HX  92           
6HR MIN TEMP:  87; 6HR MAX TEMP:  94;                                

CORINTH        FAIR      86  72  62 S7        29.88S HX  92           
GOLDN TRIANGLE FAIR      87  73  62 S12       29.91S HX  94           
STARKVILLE     FAIR      88  72  58 S9        29.91S HX  94           
TUPELO         FAIR      87  72  60 S7        29.88S HX  93           
6HR MIN TEMP:  87; 6HR MAX TEMP:  93;                                

$$

MSZ040-058-240100-
CENTRAL MISSISSIPPI
  
CITY           SKY/WX    TMP DP  RH WIND       PRES   REMARKS
JACKSON INTL   PTSUNNY   85  69  58 S10       29.90S                  
6HR MIN TEMP:  82; 6HR MAX TEMP:  95; 6HR PCP:  0.01;                

JACKSON HAWKNS FAIR      86  71  60 S7        29.91R HX  91           
6HR MIN TEMP:  85; 6HR MAX TEMP:  95; 6HR PCP: TRACE;                

MADISON        FAIR      82  75  78 S5        29.90R                  
MERIDIAN KEY   FAIR      91  72  53 S8        29.92R HX  98           
6HR MIN TEMP:  91; 6HR MAX TEMP:  95;                                

MERIDIAN NAS   PTSUNNY   90  73  57 SE3       29.91F HX  98           
6HR MIN TEMP:  89; 6HR MAX TEMP:  95;                                

RAYMOND        FAIR      86  77  74 SE5       29.89R HX  97           
VICKSBURG VKS  CLEAR     90  75  62 S8        29.86F HX 100           
$$

MSZ059>079-240100-
SOUTH MISSISSIPPI
  
CITY           SKY/WX    TMP DP  RH WIND       PRES   REMARKS
BROOKHAVEN     FAIR      86  79  79 E6        29.93S HX  99           
HATTIESBURG    FAIR      87  76  69 S9        29.94R HX  97           
6HR MIN TEMP:  87; 6HR MAX TEMP:  94;                                

LAUREL         CLEAR     90  75  61 S14       29.93R HX  99           
MCCOMB         FAIR      88  76  67 S10       29.92R HX  99           
6HR MIN TEMP:  87; 6HR MAX TEMP:  93; 6HR PCP:  0.03;                

NATCHEZ        FAIR      86  76  71 S9        29.90S HX  96           
6HR MIN TEMP:  86; 6HR MAX TEMP:  92; 6HR PCP: TRACE;                

PINE BELT      FAIR      86  76  71 S7        29.94R HX  96           
6HR MIN TEMP:  86; 6HR MAX TEMP:  94;                                

$$

MSZ080>082-240100-
COASTAL MISSISSIPPI
  
CITY           SKY/WX    TMP DP  RH WIND       PRES   REMARKS
BAY ST LOUIS   MOSUNNY   88  77  70 S12       29.94R HX 100           
BILOXI         FAIR      88  77  71 S15       29.96R HX 100           
6HR MIN TEMP:  87; 6HR MAX TEMP:  92;                                

PASCAGOULA     FAIR      87  76  69 S8        29.96F HX  97           
6HR MIN TEMP:  87; 6HR MAX TEMP:  94;                                

GULFPORT       PTSUNNY   87  77  72 S13       29.95R HX  99           
6HR MIN TEMP:  87; 6HR MAX TEMP:  92;                                

$$

LAZ007>009-015>016-023>026-240100-
NORTHEAST LOUISIANA
  
CITY           SKY/WX    TMP DP  RH WIND       PRES   REMARKS
BASTROP        FAIR      87  75  66 SE3       29.84S HX  97           
TALLULAH/VBURG FAIR      88  76  67 S8        29.86F HX  99           
6HR MIN TEMP:  88; 6HR MAX TEMP:  92;                                

VIDALIA        FAIR      87  76  70 S8        29.87F HX  98           
$$